Lovelady, Texas
Current Conditions -  °F | °C
As of 4:15 AM on Thursday 23 Oct 2014 (Local Time) from KDKR Reporting Station
Clear Clear  
Wind Chill: 64°   Ceiling: Unl
Heat Index: 64°   Visibility: 10mi
Dew Point: 57°   Wind: 3mph
Humidity: 77%   Direction: 80°E
Pressure: 30.13"   Gusts: NA
Location:  31.13°N, 95.45°W
Report Text: KDKR 230915Z AUTO 08003KT 10SM CLR 18/14 A3013 RMK AO2
Loading
Personal Weather Stations






























Interactive Weather Map
Tropical Storm Tracking
New forecast layout! Learn more

10-Day Weather Forecast

Advertisements
Track Severe Weather on mobile